Location: Unspecified
(0.0000°N, 0.0000°E)
Time: 07:50:07
(UTC+00:00)

BlueWalker 3 - Pass Details

Date: 08 November 2025
Orbit: 456 x 463 km, 53.2° (Epoch: 13 November)

Event Time Altitude Azimuth Distance (km) Brightness Sun altitude
Rises 18:53:43 0° 185° (S) 2,481 5.8 -16.7°
Reaches altitude 10° 18:56:36 10° 161° (SSE) 1,606 4.5 -17.4°
Enters shadow 18:57:47 14° 142° (SE) 1,391 4.0 -17.7°
